Time,TemperatureF,DewpointF,PressureIn,WindDirection,WindDirectionDegrees,WindSpeedMPH,WindSpeedGustMPH,Humidity,HourlyPrecipIn,Conditions,Clouds,dailyrainin,SoftwareType,DateUTC
2013-03-08 00:01:00,26.4,25.3,30.09,NE,45,0.0,0.0,96,0.00,,,0.08,WUHU21623XXSP,2013-03-08 08:01:00,
2013-03-08 00:06:00,26.2,25.1,30.09,NE,45,0.0,0.0,96,0.00,,,0.00,WUHU21623XXSP,2013-03-08 08:06:00,
2013-03-08 00:11:00,26.2,25.1,30.09,NE,45,0.0,0.0,96,0.00,,,0.00,WUHU21623XXSP,2013-03-08 08:11:00,
2013-03-08 00:16:00,26.2,25.1,30.09,NE,45,0.0,0.0,96,0.00,,,0.00,WUHU21623XXSP,2013-03-08 08:16:00,
2013-03-08 00:21:00,26.1,25.0,30.09,NE,45,0.0,0.0,96,0.00,,,0.00,WUHU21623XXSP,2013-03-08 08:21:00,
2013-03-08 00:26:00,25.7,24.6,30.09,NE,45,0.0,0.0,96,0.00,,,0.00,WUHU21623XXSP,2013-03-08 08:26:00,
2013-03-08 00:31:00,25.5,24.4,30.09,NE,45,0.0,0.0,96,0.00,,,0.00,WUHU21623XXSP,2013-03-08 08:31:00,
2013-03-08 00:36:00,25.7,24.6,30.09,NE,45,0.0,0.0,96,0.00,,,0.00,WUHU21623XXSP,2013-03-08 08:36:00,
2013-03-08 00:41:00,25.7,24.6,30.09,NE,45,0.0,0.0,96,0.00,,,0.00,WUHU21623XXSP,2013-03-08 08:41:00,
2013-03-08 00:46:00,25.5,24.4,30.09,NE,45,0.0,0.0,96,0.00,,,0.00,WUHU21623XXSP,2013-03-08 08:46:00,
2013-03-08 00:51:00,25.3,24.2,30.09,NE,45,0.0,0.0,96,0.00,,,0.00,WUHU21623XXSP,2013-03-08 08:51:00,
2013-03-08 00:56:00,25.2,24.1,30.09,NE,45,0.0,0.0,96,0.00,,,0.00,WUHU21623XXSP,2013-03-08 08:56:00,
2013-03-08 01:01:00,25.2,24.1,30.09,NE,45,0.0,0.0,96,0.00,,,0.00,WUHU21623XXSP,2013-03-08 09:01:00,
2013-03-08 01:06:00,25.2,24.1,30.09,NE,45,0.0,0.0,96,0.00,,,0.00,WUHU21623XXSP,2013-03-08 09:06:00,
2013-03-08 01:11:00,25.2,24.1,30.09,NE,45,0.0,0.0,96,0.00,,,0.00,WUHU21623XXSP,2013-03-08 09:11:00,
2013-03-08 01:16:00,25.0,23.9,30.09,NE,45,0.0,0.0,96,0.00,,,0.00,WUHU21623XXSP,2013-03-08 09:16:00,
2013-03-08 01:21:00,24.6,23.5,30.09,NE,45,0.0,0.0,96,0.00,,,0.00,WUHU21623XXSP,2013-03-08 09:21:00,
2013-03-08 01:26:00,24.6,23.5,30.09,NE,45,0.0,0.0,96,0.00,,,0.00,WUHU21623XXSP,2013-03-08 09:26:00,
2013-03-08 01:31:00,24.6,23.5,30.09,NE,45,0.0,0.0,96,0.00,,,0.00,WUHU21623XXSP,2013-03-08 09:31:00,
2013-03-08 01:36:00,24.6,23.5,30.09,NE,45,0.0,0.0,96,0.00,,,0.00,WUHU21623XXSP,2013-03-08 09:36:00,
2013-03-08 01:41:00,24.6,23.5,30.09,NE,45,0.0,0.0,96,0.00,,,0.00,WUHU21623XXSP,2013-03-08 09:41:00,
2013-03-08 01:46:00,24.4,23.3,30.09,NE,45,0.0,0.0,96,0.00,,,0.00,WUHU21623XXSP,2013-03-08 09:46:00,
2013-03-08 01:51:00,24.3,23.2,30.09,NE,45,0.0,0.0,96,0.00,,,0.00,WUHU21623XXSP,2013-03-08 09:51:00,
2013-03-08 01:56:00,24.1,23.0,30.09,NE,45,0.0,0.0,96,0.00,,,0.00,WUHU21623XXSP,2013-03-08 09:56:00,
2013-03-08 02:01:00,24.4,23.3,30.09,NE,45,0.0,0.0,96,0.00,,,0.00,WUHU21623XXSP,2013-03-08 10:01:00,
2013-03-08 02:06:00,24.4,23.3,30.09,NE,45,0.0,0.0,96,0.00,,,0.00,WUHU21623XXSP,2013-03-08 10:06:00,
2013-03-08 02:11:00,24.4,23.3,30.08,NE,45,0.0,0.0,96,0.00,,,0.00,WUHU21623XXSP,2013-03-08 10:11:00,
2013-03-08 02:16:00,24.4,23.3,30.09,NE,45,0.0,0.0,96,0.00,,,0.00,WUHU21623XXSP,2013-03-08 10:16:00,
2013-03-08 02:21:00,24.6,23.5,30.09,NE,45,0.0,0.0,96,0.00,,,0.00,WUHU21623XXSP,2013-03-08 10:21:00,
2013-03-08 02:26:00,24.6,23.5,30.09,NE,45,0.0,0.0,96,0.00,,,0.00,WUHU21623XXSP,2013-03-08 10:26:00,
2013-03-08 02:31:00,24.6,23.5,30.08,NE,45,0.0,0.0,96,0.00,,,0.00,WUHU21623XXSP,2013-03-08 10:31:00,
2013-03-08 02:36:00,24.6,23.5,30.08,NE,45,0.0,0.0,96,0.00,,,0.00,WUHU21623XXSP,2013-03-08 10:36:00,
2013-03-08 02:41:00,24.6,23.5,30.08,NE,45,0.0,0.0,96,0.00,,,0.00,WUHU21623XXSP,2013-03-08 10:41:00,
2013-03-08 02:46:00,24.4,23.3,30.09,NE,45,0.0,0.0,96,0.00,,,0.00,WUHU21623XXSP,2013-03-08 10:46:00,
2013-03-08 02:51:00,24.4,23.3,30.08,NE,45,0.0,0.0,96,0.00,,,0.00,WUHU21623XXSP,2013-03-08 10:51:00,
2013-03-08 02:56:00,24.6,23.5,30.08,NE,45,0.0,0.0,96,0.00,,,0.00,WUHU21623XXSP,2013-03-08 10:56:00,
2013-03-08 03:01:00,24.4,23.3,30.08,NE,45,0.0,0.0,96,0.00,,,0.00,WUHU21623XXSP,2013-03-08 11:01:00,
2013-03-08 03:06:00,24.4,23.3,30.08,NE,45,0.0,0.0,96,0.00,,,0.00,WUHU21623XXSP,2013-03-08 11:06:00,
2013-03-08 03:11:00,24.4,23.3,30.08,NE,45,0.0,0.0,96,0.00,,,0.00,WUHU21623XXSP,2013-03-08 11:11:00,
2013-03-08 03:16:00,24.4,23.3,30.08,NE,45,0.0,0.0,96,0.00,,,0.00,WUHU21623XXSP,2013-03-08 11:16:00,
2013-03-08 03:21:00,24.6,23.5,30.08,NE,45,0.0,0.0,96,0.00,,,0.00,WUHU21623XXSP,2013-03-08 11:21:00,
2013-03-08 03:26:00,24.6,23.5,30.08,NE,45,0.0,0.0,96,0.00,,,0.00,WUHU21623XXSP,2013-03-08 11:26:00,
2013-03-08 03:31:00,25.9,25.1,30.08,NE,45,0.0,0.0,97,0.00,,,0.00,WUHU21623XXSP,2013-03-08 11:31:00,
2013-03-08 03:36:00,26.2,25.4,30.08,NE,45,0.0,0.0,97,0.00,,,0.00,WUHU21623XXSP,2013-03-08 11:36:00,
2013-03-08 03:41:00,26.4,25.6,30.08,NE,45,0.0,0.0,97,0.00,,,0.00,WUHU21623XXSP,2013-03-08 11:41:00,
2013-03-08 03:46:00,26.8,26.0,30.09,NE,45,0.0,0.0,97,0.00,,,0.00,WUHU21623XXSP,2013-03-08 11:46:00,
2013-03-08 03:51:00,27.0,26.2,30.08,NE,45,0.0,0.0,97,0.00,,,0.00,WUHU21623XXSP,2013-03-08 11:51:00,
2013-03-08 03:56:00,27.0,26.2,30.08,NE,45,0.0,0.0,97,0.00,,,0.00,WUHU21623XXSP,2013-03-08 11:56:00,
2013-03-08 04:01:00,27.3,26.5,30.08,NE,45,0.0,0.0,97,0.00,,,0.00,WUHU21623XXSP,2013-03-08 12:01:00,
2013-03-08 04:06:00,27.3,26.5,30.08,NE,45,0.0,0.0,97,0.00,,,0.00,WUHU21623XXSP,2013-03-08 12:06:00,
2013-03-08 04:11:00,27.5,26.9,30.08,NE,45,0.0,0.0,98,0.00,,,0.00,WUHU21623XXSP,2013-03-08 12:11:00,
2013-03-08 04:16:00,27.7,27.1,30.08,NE,45,0.0,0.0,98,0.00,,,0.00,WUHU21623XXSP,2013-03-08 12:16:00,
2013-03-08 04:21:00,27.7,27.1,30.08,NE,45,0.0,0.0,98,0.00,,,0.00,WUHU21623XXSP,2013-03-08 12:21:00,
2013-03-08 04:26:00,27.9,27.3,30.08,NE,45,0.0,0.0,98,0.00,,,0.00,WUHU21623XXSP,2013-03-08 12:26:00,
2013-03-08 04:31:00,27.7,27.1,30.08,NE,45,0.0,0.0,98,0.00,,,0.00,WUHU21623XXSP,2013-03-08 12:31:00,
2013-03-08 04:36:00,27.7,27.1,30.08,NE,45,0.0,0.0,98,0.00,,,0.00,WUHU21623XXSP,2013-03-08 12:36:00,
2013-03-08 04:41:00,27.7,27.1,30.08,NE,45,0.0,0.0,98,0.00,,,0.00,WUHU21623XXSP,2013-03-08 12:41:00,
2013-03-08 04:46:00,27.7,27.1,30.08,NE,45,0.0,0.0,98,0.00,,,0.00,WUHU21623XXSP,2013-03-08 12:46:00,
2013-03-08 04:51:00,27.7,27.1,30.08,NE,45,0.0,0.0,98,0.00,,,0.00,WUHU21623XXSP,2013-03-08 12:51:00,
2013-03-08 04:56:00,27.7,27.1,30.08,NE,45,0.0,0.0,98,0.00,,,0.00,WUHU21623XXSP,2013-03-08 12:56:00,
2013-03-08 05:01:00,27.7,27.1,30.08,NE,45,0.0,0.0,98,0.00,,,0.00,WUHU21623XXSP,2013-03-08 13:01:00,
2013-03-08 05:06:00,27.7,27.1,30.08,NE,45,0.0,0.0,98,0.00,,,0.00,WUHU21623XXSP,2013-03-08 13:06:00,
2013-03-08 05:11:00,27.7,27.1,30.08,NE,45,0.0,0.0,98,0.00,,,0.00,WUHU21623XXSP,2013-03-08 13:11:00,
2013-03-08 05:16:00,27.7,27.1,30.08,NE,45,0.0,0.0,98,0.00,,,0.00,WUHU21623XXSP,2013-03-08 13:16:00,
2013-03-08 05:21:00,27.7,27.1,30.08,NE,45,0.0,0.0,98,0.00,,,0.00,WUHU21623XXSP,2013-03-08 13:21:00,
2013-03-08 05:26:00,27.5,26.9,30.09,NE,45,0.0,0.0,98,0.00,,,0.00,WUHU21623XXSP,2013-03-08 13:26:00,
2013-03-08 05:31:00,27.3,26.7,30.09,NE,45,0.0,0.9,98,0.00,,,0.00,WUHU21623XXSP,2013-03-08 13:31:00,
2013-03-08 05:36:00,27.3,26.7,30.08,NE,45,0.0,0.9,98,0.00,,,0.00,WUHU21623XXSP,2013-03-08 13:36:00,
2013-03-08 05:41:00,27.1,26.5,30.09,NE,45,0.0,0.0,98,0.00,,,0.00,WUHU21623XXSP,2013-03-08 13:41:00,
2013-03-08 05:47:00,27.1,26.5,30.09,NE,45,0.0,0.0,98,0.00,,,0.00,WUHU21623XXSP,2013-03-08 13:47:00,
2013-03-08 05:52:00,27.1,26.5,30.09,NE,45,0.0,0.0,98,0.00,,,0.00,WUHU21623XXSP,2013-03-08 13:52:00,
2013-03-08 05:57:00,27.0,26.4,30.09,NE,45,0.0,0.0,98,0.00,,,0.00,WUHU21623XXSP,2013-03-08 13:57:00,
2013-03-08 06:02:00,27.0,26.4,30.09,NE,45,0.0,0.0,98,0.00,,,0.00,WUHU21623XXSP,2013-03-08 14:02:00,
2013-03-08 06:07:00,27.1,26.5,30.09,NE,45,0.0,0.0,98,0.00,,,0.00,WUHU21623XXSP,2013-03-08 14:07:00,
2013-03-08 06:12:00,27.1,26.5,30.09,NE,45,0.0,0.0,98,0.00,,,0.00,WUHU21623XXSP,2013-03-08 14:12:00,
2013-03-08 06:16:00,27.1,26.5,30.09,NE,45,0.0,0.0,98,0.00,,,0.00,WUHU21623XXSP,2013-03-08 14:16:00,
2013-03-08 06:21:00,27.1,26.5,30.09,NE,45,0.0,0.0,98,0.00,,,0.00,WUHU21623XXSP,2013-03-08 14:21:00,
2013-03-08 06:26:00,27.1,26.5,30.09,NE,45,0.0,0.0,98,0.00,,,0.00,WUHU21623XXSP,2013-03-08 14:26:00,
2013-03-08 06:31:00,27.1,26.5,30.09,NE,45,0.0,0.0,98,0.00,,,0.00,WUHU21623XXSP,2013-03-08 14:31:00,
2013-03-08 06:36:00,27.1,26.5,30.09,NE,45,0.0,0.0,98,0.00,,,0.00,WUHU21623XXSP,2013-03-08 14:36:00,
2013-03-08 06:41:00,27.3,26.7,30.09,NE,45,0.0,0.0,98,0.00,,,0.00,WUHU21623XXSP,2013-03-08 14:41:00,
2013-03-08 06:46:00,27.3,26.7,30.09,NE,45,0.0,0.0,98,0.00,,,0.00,WUHU21623XXSP,2013-03-08 14:46:00,
2013-03-08 06:51:00,27.5,26.9,30.09,NE,45,0.0,0.0,98,0.00,,,0.00,WUHU21623XXSP,2013-03-08 14:51:00,
2013-03-08 06:56:00,27.5,26.9,30.09,NE,45,0.0,0.0,98,0.00,,,0.00,WUHU21623XXSP,2013-03-08 14:56:00,
2013-03-08 07:01:00,27.7,27.1,30.09,NE,45,0.0,0.0,98,0.00,,,0.00,WUHU21623XXSP,2013-03-08 15:01:00,
2013-03-08 07:06:00,27.7,27.1,30.09,NE,45,0.0,0.0,98,0.00,,,0.00,WUHU21623XXSP,2013-03-08 15:06:00,
2013-03-08 07:11:00,27.9,27.3,30.09,NE,45,0.0,0.0,98,0.00,,,0.00,WUHU21623XXSP,2013-03-08 15:11:00,
2013-03-08 07:16:00,28.0,27.4,30.09,NE,45,0.0,0.0,98,0.00,,,0.00,WUHU21623XXSP,2013-03-08 15:16:00,
2013-03-08 07:21:00,28.0,27.4,30.09,NE,45,0.0,0.0,98,0.00,,,0.00,WUHU21623XXSP,2013-03-08 15:21:00,
2013-03-08 07:26:00,28.0,27.4,30.09,NE,45,0.0,0.0,98,0.00,,,0.00,WUHU21623XXSP,2013-03-08 15:26:00,
2013-03-08 07:31:00,28.2,27.6,30.09,NE,45,0.0,0.0,98,0.00,,,0.00,WUHU21623XXSP,2013-03-08 15:31:00,
2013-03-08 07:36:00,28.2,27.6,30.09,NE,45,0.0,0.0,98,0.00,,,0.00,WUHU21623XXSP,2013-03-08 15:36:00,
2013-03-08 07:41:00,28.6,28.0,30.10,NE,45,0.0,0.0,98,0.00,,,0.00,WUHU21623XXSP,2013-03-08 15:41:00,
2013-03-08 07:46:00,28.6,28.0,30.10,NE,45,0.0,0.0,98,0.00,,,0.00,WUHU21623XXSP,2013-03-08 15:46:00,
2013-03-08 07:51:00,28.6,28.0,30.09,NE,45,0.0,0.0,98,0.00,,,0.00,WUHU21623XXSP,2013-03-08 15:51:00,
2013-03-08 07:56:00,28.8,28.2,30.10,NE,45,0.0,0.0,98,0.00,,,0.00,WUHU21623XXSP,2013-03-08 15:56:00,
2013-03-08 08:01:00,28.9,28.3,30.09,NE,45,0.0,0.0,98,0.00,,,0.00,WUHU21623XXSP,2013-03-08 16:01:00,
2013-03-08 08:06:00,28.9,28.3,30.09,NE,45,0.0,0.0,98,0.00,,,0.00,WUHU21623XXSP,2013-03-08 16:06:00,
2013-03-08 08:11:00,28.9,28.3,30.09,NE,45,0.0,0.0,98,0.00,,,0.00,WUHU21623XXSP,2013-03-08 16:11:00,
2013-03-08 08:16:00,29.1,28.5,30.09,NE,45,0.0,0.0,98,0.00,,,0.00,WUHU21623XXSP,2013-03-08 16:16:00,
2013-03-08 08:21:00,29.1,28.5,30.09,NE,45,0.0,0.0,98,0.00,,,0.00,WUHU21623XXSP,2013-03-08 16:21:00,
2013-03-08 08:26:00,29.5,28.9,30.09,NE,45,0.0,0.0,98,0.00,,,0.00,WUHU21623XXSP,2013-03-08 16:26:00,
2013-03-08 08:31:00,29.7,29.1,30.09,NE,45,0.0,0.0,98,0.00,,,0.00,WUHU21623XXSP,2013-03-08 16:31:00,
2013-03-08 08:36:00,29.8,29.5,30.09,NE,45,0.0,0.0,99,0.00,,,0.00,WUHU21623XXSP,2013-03-08 16:36:00,
2013-03-08 08:41:00,30.0,29.7,30.10,NE,45,0.0,0.0,99,0.00,,,0.00,WUHU21623XXSP,2013-03-08 16:41:00,
2013-03-08 08:46:00,30.0,29.7,30.10,NE,45,0.0,0.0,99,0.00,,,0.00,WUHU21623XXSP,2013-03-08 16:46:00,
2013-03-08 08:51:00,30.0,29.7,30.10,NE,45,0.0,0.0,99,0.00,,,0.00,WUHU21623XXSP,2013-03-08 16:51:00,
2013-03-08 08:56:00,30.0,29.7,30.10,NE,45,0.0,0.0,99,0.00,,,0.00,WUHU21623XXSP,2013-03-08 16:56:00,
2013-03-08 09:01:00,30.2,29.9,30.10,NE,45,0.0,0.0,99,0.00,,,0.00,WUHU21623XXSP,2013-03-08 17:01:00,
2013-03-08 09:06:00,30.2,29.9,30.10,NE,45,0.0,0.0,99,0.00,,,0.00,WUHU21623XXSP,2013-03-08 17:06:00,
2013-03-08 09:11:00,30.4,30.1,30.10,NE,45,0.0,0.0,99,0.00,,,0.00,WUHU21623XXSP,2013-03-08 17:11:00,
2013-03-08 09:16:00,30.6,30.3,30.10,NE,45,0.0,0.0,99,0.00,,,0.00,WUHU21623XXSP,2013-03-08 17:16:00,
2013-03-08 09:21:00,30.7,30.4,30.10,NE,45,0.0,0.0,99,0.00,,,0.00,WUHU21623XXSP,2013-03-08 17:21:00,
2013-03-08 09:26:00,30.7,30.4,30.10,NE,45,0.0,0.0,99,0.00,,,0.00,WUHU21623XXSP,2013-03-08 17:26:00,
2013-03-08 09:31:00,30.7,30.4,30.10,NE,45,0.0,0.0,99,0.00,,,0.00,WUHU21623XXSP,2013-03-08 17:31:00,
2013-03-08 09:36:00,30.7,30.4,30.10,NE,45,0.0,0.0,99,0.00,,,0.00,WUHU21623XXSP,2013-03-08 17:36:00,
2013-03-08 09:41:00,30.9,30.6,30.10,NE,45,0.0,0.0,99,0.00,,,0.00,WUHU21623XXSP,2013-03-08 17:41:00,
2013-03-08 09:46:00,30.7,30.4,30.10,NE,45,0.0,0.0,99,0.00,,,0.00,WUHU21623XXSP,2013-03-08 17:46:00,
2013-03-08 09:51:00,30.9,30.6,30.10,NE,45,0.0,0.0,99,0.00,,,0.00,WUHU21623XXSP,2013-03-08 17:51:00,
2013-03-08 09:56:00,31.1,30.8,30.11,NE,45,0.0,0.0,99,0.00,,,0.00,WUHU21623XXSP,2013-03-08 17:56:00,
2013-03-08 10:01:00,31.3,31.0,30.11,NE,45,0.0,0.0,99,0.00,,,0.00,WUHU21623XXSP,2013-03-08 18:01:00,
2013-03-08 10:06:00,31.3,31.0,30.11,NE,45,0.0,0.0,99,0.00,,,0.00,WUHU21623XXSP,2013-03-08 18:06:00,
2013-03-08 10:11:00,31.6,31.3,30.11,NE,45,0.0,0.0,99,0.00,,,0.00,WUHU21623XXSP,2013-03-08 18:11:00,
2013-03-08 10:16:00,31.8,31.5,30.11,NE,45,0.0,0.0,99,0.00,,,0.00,WUHU21623XXSP,2013-03-08 18:16:00,
2013-03-08 10:21:00,31.8,31.5,30.10,NE,45,0.0,0.0,99,0.00,,,0.00,WUHU21623XXSP,2013-03-08 18:21:00,
2013-03-08 10:26:00,32.2,31.9,30.11,NE,45,0.0,0.0,99,0.00,,,0.00,WUHU21623XXSP,2013-03-08 18:26:00,
2013-03-08 10:31:00,32.2,31.9,30.11,NE,45,0.0,0.0,99,0.00,,,0.00,WUHU21623XXSP,2013-03-08 18:31:00,
2013-03-08 10:36:00,32.2,31.9,30.11,NE,45,0.0,0.0,99,0.00,,,0.00,WUHU21623XXSP,2013-03-08 18:36:00,
2013-03-08 10:41:00,32.2,31.9,30.11,NE,45,0.0,0.0,99,0.00,,,0.00,WUHU21623XXSP,2013-03-08 18:41:00,
2013-03-08 10:46:00,32.5,32.2,30.11,NE,45,0.0,0.0,99,0.00,,,0.00,WUHU21623XXSP,2013-03-08 18:46:00,
2013-03-08 10:51:00,32.5,32.2,30.11,NE,45,0.0,0.0,99,0.00,,,0.00,WUHU21623XXSP,2013-03-08 18:51:00,
2013-03-08 10:56:00,32.5,32.2,30.10,NE,45,0.0,0.0,99,0.00,,,0.00,WUHU21623XXSP,2013-03-08 18:56:00,
2013-03-08 11:01:00,32.7,32.4,30.11,NE,45,0.0,0.0,99,0.00,,,0.00,WUHU21623XXSP,2013-03-08 19:01:00,
2013-03-08 11:06:00,33.1,32.8,30.11,NE,45,0.0,0.0,99,0.00,,,0.00,WUHU21623XXSP,2013-03-08 19:06:00,
2013-03-08 11:11:00,33.3,33.0,30.10,ENE,67,0.0,0.0,99,0.00,,,0.00,WUHU21623XXSP,2013-03-08 19:11:00,
2013-03-08 11:16:00,33.3,33.0,30.10,ENE,67,0.0,0.0,99,0.00,,,0.00,WUHU21623XXSP,2013-03-08 19:16:00,
2013-03-08 11:21:00,33.4,33.1,30.10,ENE,67,0.0,0.0,99,0.00,,,0.00,WUHU21623XXSP,2013-03-08 19:21:00,
2013-03-08 11:27:00,33.6,33.3,30.10,ENE,67,0.0,0.0,99,0.00,,,0.00,WUHU21623XXSP,2013-03-08 19:27:00,
2013-03-08 11:32:00,33.8,33.5,30.10,NE,45,0.0,0.0,99,0.00,,,0.00,WUHU21623XXSP,2013-03-08 19:32:00,
2013-03-08 11:37:00,34.2,33.9,30.10,NE,45,0.0,0.0,99,0.00,,,0.00,WUHU21623XXSP,2013-03-08 19:37:00,
2013-03-08 11:42:00,34.3,34.0,30.10,NE,45,0.0,0.0,99,0.00,,,0.00,WUHU21623XXSP,2013-03-08 19:42:00,
2013-03-08 11:47:00,34.3,34.0,30.10,NE,45,0.0,0.0,99,0.00,,,0.00,WUHU21623XXSP,2013-03-08 19:47:00,
2013-03-08 11:52:00,34.3,34.0,30.11,NE,45,0.0,0.0,99,0.00,,,0.00,WUHU21623XXSP,2013-03-08 19:52:00,
2013-03-08 11:57:00,34.7,34.4,30.10,NE,45,0.0,0.0,99,0.00,,,0.00,WUHU21623XXSP,2013-03-08 19:57:00,
2013-03-08 12:02:00,34.7,34.4,30.10,NE,45,0.0,0.0,99,0.00,,,0.00,WUHU21623XXSP,2013-03-08 20:02:00,
2013-03-08 12:07:00,34.9,34.6,30.10,NE,45,0.0,0.0,99,0.00,,,0.00,WUHU21623XXSP,2013-03-08 20:07:00,
2013-03-08 12:12:00,35.2,34.9,30.09,NE,45,0.0,0.0,99,0.00,,,0.00,WUHU21623XXSP,2013-03-08 20:12:00,
2013-03-08 12:17:00,35.4,34.8,30.09,NE,45,0.0,0.0,98,0.00,,,0.00,WUHU21623XXSP,2013-03-08 20:17:00,
2013-03-08 12:22:00,35.4,34.8,30.09,NE,45,0.0,0.0,98,0.00,,,0.00,WUHU21623XXSP,2013-03-08 20:22:00,
2013-03-08 12:27:00,35.8,35.2,30.09,NE,45,0.0,0.0,98,0.00,,,0.00,WUHU21623XXSP,2013-03-08 20:27:00,
2013-03-08 12:32:00,35.8,35.2,30.09,NE,45,0.0,0.0,98,0.00,,,0.00,WUHU21623XXSP,2013-03-08 20:32:00,
2013-03-08 12:37:00,35.8,35.2,30.09,ENE,67,0.0,0.0,98,0.00,,,0.00,WUHU21623XXSP,2013-03-08 20:37:00,
2013-03-08 12:42:00,36.0,35.1,30.09,NE,45,0.0,0.0,97,0.00,,,0.00,WUHU21623XXSP,2013-03-08 20:42:00,
2013-03-08 12:47:00,36.0,35.1,30.09,NE,45,0.0,0.0,97,0.00,,,0.00,WUHU21623XXSP,2013-03-08 20:47:00,
2013-03-08 12:52:00,35.8,34.9,30.09,NE,45,0.0,0.0,97,0.00,,,0.00,WUHU21623XXSP,2013-03-08 20:52:00,
2013-03-08 12:57:00,35.8,34.9,30.09,ENE,67,0.0,0.0,97,0.00,,,0.00,WUHU21623XXSP,2013-03-08 20:57:00,
2013-03-08 13:02:00,35.8,34.9,30.09,ENE,67,0.0,0.0,97,0.00,,,0.00,WUHU21623XXSP,2013-03-08 21:02:00,
2013-03-08 13:07:00,36.0,35.1,30.09,ENE,67,0.0,0.0,97,0.00,,,0.00,WUHU21623XXSP,2013-03-08 21:07:00,
2013-03-08 13:12:00,36.1,35.2,30.09,NE,45,0.0,0.0,97,0.00,,,0.00,WUHU21623XXSP,2013-03-08 21:12:00,
2013-03-08 13:17:00,36.3,35.2,30.09,NE,45,0.0,0.0,96,0.00,,,0.00,WUHU21623XXSP,2013-03-08 21:17:00,
2013-03-08 13:22:00,36.7,35.6,30.09,ENE,67,0.0,0.0,96,0.00,,,0.00,WUHU21623XXSP,2013-03-08 21:22:00,
2013-03-08 13:27:00,36.7,35.6,30.09,ENE,67,0.0,0.0,96,0.00,,,0.00,WUHU21623XXSP,2013-03-08 21:27:00,
2013-03-08 13:32:00,37.2,36.1,30.09,ENE,67,0.0,0.0,96,0.00,,,0.00,WUHU21623XXSP,2013-03-08 21:32:00,
2013-03-08 13:37:00,37.6,36.2,30.09,NE,45,0.0,0.0,95,0.00,,,0.00,WUHU21623XXSP,2013-03-08 21:37:00,
2013-03-08 13:42:00,37.9,36.5,30.09,NE,45,0.0,0.0,95,0.00,,,0.00,WUHU21623XXSP,2013-03-08 21:42:00,
2013-03-08 13:47:00,38.5,36.8,30.09,ENE,67,0.0,0.0,94,0.00,,,0.00,WUHU21623XXSP,2013-03-08 21:47:00,
2013-03-08 13:52:00,38.5,36.8,30.09,ENE,67,0.0,0.0,94,0.00,,,0.00,WUHU21623XXSP,2013-03-08 21:52:00,
2013-03-08 13:57:00,39.2,37.5,30.09,ENE,67,0.0,0.0,94,0.00,,,0.00,WUHU21623XXSP,2013-03-08 21:57:00,
2013-03-08 14:02:00,39.6,37.9,30.09,ENE,67,0.0,0.0,94,0.00,,,0.00,WUHU21623XXSP,2013-03-08 22:02:00,
2013-03-08 14:07:00,39.4,37.4,30.09,ENE,67,0.0,0.0,93,0.00,,,0.00,WUHU21623XXSP,2013-03-08 22:07:00,
2013-03-08 14:12:00,38.5,36.3,30.09,ESE,112,0.0,0.0,92,0.00,,,0.00,WUHU21623XXSP,2013-03-08 22:12:00,
2013-03-08 14:17:00,38.5,36.3,30.09,ESE,112,0.0,0.0,92,0.00,,,0.00,WUHU21623XXSP,2013-03-08 22:17:00,
2013-03-08 14:22:00,38.8,36.6,30.09,ESE,112,0.0,0.0,92,0.00,,,0.00,WUHU21623XXSP,2013-03-08 22:22:00,
2013-03-08 14:27:00,39.4,37.4,30.09,ESE,112,0.0,0.0,93,0.00,,,0.00,WUHU21623XXSP,2013-03-08 22:27:00,
2013-03-08 14:32:00,39.9,37.9,30.08,WSW,247,0.0,0.0,93,0.00,,,0.00,WUHU21623XXSP,2013-03-08 22:32:00,
2013-03-08 14:37:00,40.5,38.3,30.09,WSW,247,0.0,0.0,92,0.00,,,0.00,WUHU21623XXSP,2013-03-08 22:37:00,
2013-03-08 14:42:00,40.6,38.1,30.08,WSW,247,0.0,0.0,91,0.00,,,0.00,WUHU21623XXSP,2013-03-08 22:42:00,
2013-03-08 14:47:00,40.6,38.1,30.08,WSW,247,0.0,0.0,91,0.00,,,0.00,WUHU21623XXSP,2013-03-08 22:47:00,
2013-03-08 14:52:00,40.3,37.5,30.08,WSW,247,1.3,1.3,90,0.00,,,0.00,WUHU21623XXSP,2013-03-08 22:52:00,
2013-03-08 14:57:00,39.0,36.2,30.08,SSE,157,0.0,2.0,90,0.00,,,0.00,WUHU21623XXSP,2013-03-08 22:57:00,
2013-03-08 15:02:00,38.7,35.9,30.08,WSW,247,0.0,2.0,90,0.00,,,0.00,WUHU21623XXSP,2013-03-08 23:02:00,
2013-03-08 15:07:00,38.8,36.3,30.08,WSW,247,0.0,0.0,91,0.00,,,0.00,WUHU21623XXSP,2013-03-08 23:07:00,
2013-03-08 15:12:00,38.8,36.0,30.08,SE,135,0.0,2.9,90,0.00,,,0.00,WUHU21623XXSP,2013-03-08 23:12:00,
2013-03-08 15:17:00,38.8,36.3,30.08,SE,135,0.0,2.9,91,0.00,,,0.00,WUHU21623XXSP,2013-03-08 23:17:00,
2013-03-08 15:22:00,38.8,36.3,30.08,WSW,247,0.0,0.0,91,0.00,,,0.00,WUHU21623XXSP,2013-03-08 23:22:00,
2013-03-08 15:27:00,39.0,36.8,30.08,WSW,247,0.0,0.0,92,0.00,,,0.00,WUHU21623XXSP,2013-03-08 23:27:00,
2013-03-08 15:32:00,39.7,37.5,30.08,WSW,247,0.0,0.7,92,0.00,,,0.00,WUHU21623XXSP,2013-03-08 23:32:00,
2013-03-08 15:37:00,39.9,37.4,30.07,WSW,247,1.1,1.1,91,0.00,,,0.00,WUHU21623XXSP,2013-03-08 23:37:00,
2013-03-08 15:42:00,40.1,37.6,30.07,WSW,247,0.0,1.1,91,0.00,,,0.00,WUHU21623XXSP,2013-03-08 23:42:00,
2013-03-08 15:47:00,40.1,37.3,30.07,WSW,247,6.5,6.5,90,0.00,,,0.00,WUHU21623XXSP,2013-03-08 23:47:00,
2013-03-08 15:52:00,39.9,37.1,30.07,WSW,247,0.0,6.5,90,0.00,,,0.00,WUHU21623XXSP,2013-03-08 23:52:00,
2013-03-08 15:57:00,40.1,37.3,30.07,WSW,247,0.0,6.5,90,0.00,,,0.00,WUHU21623XXSP,2013-03-08 23:57:00,
2013-03-08 16:02:00,40.3,37.5,30.08,WSW,247,0.0,0.0,90,0.00,,,0.00,WUHU21623XXSP,2013-03-09 00:02:00,
2013-03-08 16:07:00,40.3,37.2,30.08,WSW,247,0.0,0.0,89,0.00,,,0.00,WUHU21623XXSP,2013-03-09 00:07:00,
2013-03-08 16:12:00,40.3,36.9,30.08,WSW,247,0.0,0.0,88,0.00,,,0.00,WUHU21623XXSP,2013-03-09 00:12:00,
2013-03-08 16:17:00,40.5,37.1,30.08,WSW,247,0.0,0.0,88,0.00,,,0.00,WUHU21623XXSP,2013-03-09 00:17:00,
2013-03-08 16:22:00,40.5,37.4,30.08,WSW,247,0.0,0.0,89,0.00,,,0.00,WUHU21623XXSP,2013-03-09 00:22:00,
2013-03-08 16:27:00,40.8,37.7,30.08,WSW,247,0.0,0.0,89,0.00,,,0.00,WUHU21623XXSP,2013-03-09 00:27:00,
2013-03-08 16:32:00,40.8,37.7,30.08,WSW,247,0.0,0.0,89,0.00,,,0.00,WUHU21623XXSP,2013-03-09 00:32:00,
2013-03-08 16:37:00,41.2,37.8,30.08,WSW,247,0.0,0.0,88,0.00,,,0.00,WUHU21623XXSP,2013-03-09 00:37:00,
2013-03-08 16:42:00,40.6,37.5,30.08,WSW,247,0.0,0.0,89,0.00,,,0.00,WUHU21623XXSP,2013-03-09 00:42:00,
2013-03-08 16:47:00,40.5,37.4,30.08,WSW,247,0.0,0.0,89,0.00,,,0.00,WUHU21623XXSP,2013-03-09 00:47:00,
2013-03-08 16:52:00,40.1,37.0,30.08,WSW,247,0.0,0.0,89,0.00,,,0.00,WUHU21623XXSP,2013-03-09 00:52:00,
2013-03-08 16:57:00,39.7,36.6,30.08,SE,135,0.0,0.0,89,0.00,,,0.00,WUHU21623XXSP,2013-03-09 00:57:00,
2013-03-08 17:02:00,39.6,36.5,30.08,SSE,157,0.0,0.0,89,0.00,,,0.00,WUHU21623XXSP,2013-03-09 01:02:00,
2013-03-08 17:07:00,39.4,36.6,30.08,SSE,157,0.0,0.0,90,0.00,,,0.00,WUHU21623XXSP,2013-03-09 01:07:00,
2013-03-08 17:12:00,39.0,36.2,30.08,SSE,157,0.0,0.0,90,0.00,,,0.00,WUHU21623XXSP,2013-03-09 01:12:00,
2013-03-08 17:17:00,38.8,36.0,30.08,SSE,157,0.0,0.0,90,0.00,,,0.00,WUHU21623XXSP,2013-03-09 01:17:00,
2013-03-08 17:22:00,38.3,35.5,30.08,SSE,157,0.0,0.0,90,0.00,,,0.00,WUHU21623XXSP,2013-03-09 01:22:00,
2013-03-08 17:27:00,37.9,35.4,30.08,SSE,157,0.0,0.0,91,0.00,,,0.00,WUHU21623XXSP,2013-03-09 01:27:00,
2013-03-08 17:32:00,37.6,35.1,30.08,SSE,157,0.0,0.0,91,0.00,,,0.00,WUHU21623XXSP,2013-03-09 01:32:00,
2013-03-08 17:37:00,37.2,34.7,30.08,SSE,157,0.0,0.0,91,0.00,,,0.00,WUHU21623XXSP,2013-03-09 01:37:00,
2013-03-08 17:42:00,36.5,34.3,30.08,SSE,157,0.0,0.0,92,0.00,,,0.00,WUHU21623XXSP,2013-03-09 01:42:00,
2013-03-08 17:47:00,36.1,33.9,30.08,SSE,157,0.0,0.0,92,0.00,,,0.00,WUHU21623XXSP,2013-03-09 01:47:00,
2013-03-08 17:52:00,35.8,33.6,30.09,SSE,157,0.0,0.0,92,0.00,,,0.00,WUHU21623XXSP,2013-03-09 01:52:00,
2013-03-08 17:57:00,34.9,33.0,30.09,SSE,157,0.0,0.0,93,0.00,,,0.00,WUHU21623XXSP,2013-03-09 01:57:00,
2013-03-08 18:02:00,34.7,33.1,30.09,SSE,157,0.0,0.0,94,0.00,,,0.00,WUHU21623XXSP,2013-03-09 02:02:00,
2013-03-08 18:07:00,34.3,32.7,30.09,SSE,157,0.0,0.0,94,0.00,,,0.00,WUHU21623XXSP,2013-03-09 02:07:00,
2013-03-08 18:12:00,34.2,32.6,30.09,SSE,157,0.0,0.0,94,0.00,,,0.00,WUHU21623XXSP,2013-03-09 02:12:00,
2013-03-08 18:17:00,33.6,32.0,30.09,SSE,157,0.0,0.0,94,0.00,,,0.00,WUHU21623XXSP,2013-03-09 02:17:00,
2013-03-08 18:22:00,33.1,31.5,30.09,SSE,157,0.0,0.0,94,0.00,,,0.00,WUHU21623XXSP,2013-03-09 02:22:00,
2013-03-08 18:27:00,32.7,31.1,30.10,SSE,157,0.0,0.0,94,0.00,,,0.00,WUHU21623XXSP,2013-03-09 02:27:00,
2013-03-08 18:32:00,32.7,31.3,30.10,SSE,157,0.0,0.0,95,0.00,,,0.00,WUHU21623XXSP,2013-03-09 02:32:00,
2013-03-08 18:37:00,32.5,31.1,30.09,SSE,157,0.0,0.0,95,0.00,,,0.00,WUHU21623XXSP,2013-03-09 02:37:00,
2013-03-08 18:42:00,32.2,30.8,30.10,SSE,157,0.0,0.0,95,0.00,,,0.00,WUHU21623XXSP,2013-03-09 02:42:00,
2013-03-08 18:47:00,31.8,30.4,30.10,SSE,157,0.0,0.0,95,0.00,,,0.00,WUHU21623XXSP,2013-03-09 02:47:00,
2013-03-08 18:52:00,31.6,30.2,30.10,SSE,157,0.0,0.0,95,0.00,,,0.00,WUHU21623XXSP,2013-03-09 02:52:00,
2013-03-08 18:57:00,31.3,29.9,30.11,SSE,157,0.0,0.0,95,0.00,,,0.00,WUHU21623XXSP,2013-03-09 02:57:00,
2013-03-08 19:02:00,31.1,29.7,30.11,SSE,157,0.0,0.0,95,0.00,,,0.00,WUHU21623XXSP,2013-03-09 03:02:00,
2013-03-08 19:07:00,30.9,29.5,30.11,SSE,157,0.0,0.0,95,0.00,,,0.00,WUHU21623XXSP,2013-03-09 03:07:00,
2013-03-08 19:12:00,30.7,29.3,30.11,SSE,157,0.0,0.0,95,0.00,,,0.00,WUHU21623XXSP,2013-03-09 03:12:00,
2013-03-08 19:17:00,30.7,29.3,30.11,SSE,157,0.0,0.0,95,0.00,,,0.00,WUHU21623XXSP,2013-03-09 03:17:00,
2013-03-08 19:22:00,30.6,29.2,30.11,SSE,157,0.0,0.0,95,0.00,,,0.00,WUHU21623XXSP,2013-03-09 03:22:00,
2013-03-08 19:27:00,30.4,29.0,30.12,SSE,157,0.0,0.0,95,0.00,,,0.00,WUHU21623XXSP,2013-03-09 03:27:00,
2013-03-08 19:32:00,30.4,29.3,30.12,SSE,157,0.0,0.0,96,0.00,,,0.00,WUHU21623XXSP,2013-03-09 03:32:00,
2013-03-08 19:37:00,30.6,29.5,30.12,SSE,157,0.0,0.0,96,0.00,,,0.00,WUHU21623XXSP,2013-03-09 03:37:00,
2013-03-08 19:42:00,30.6,29.5,30.12,SSE,157,0.0,0.0,96,0.00,,,0.00,WUHU21623XXSP,2013-03-09 03:42:00,
2013-03-08 19:47:00,30.2,29.1,30.12,SSE,157,0.0,0.0,96,0.00,,,0.00,WUHU21623XXSP,2013-03-09 03:47:00,
2013-03-08 19:52:00,30.6,29.8,30.12,SSE,157,0.0,0.0,97,0.00,,,0.00,WUHU21623XXSP,2013-03-09 03:52:00,
2013-03-08 19:57:00,30.9,30.1,30.12,SSE,157,0.0,0.0,97,0.00,,,0.00,WUHU21623XXSP,2013-03-09 03:57:00,
2013-03-08 20:02:00,30.7,29.9,30.12,SSE,157,0.0,0.0,97,0.00,,,0.00,WUHU21623XXSP,2013-03-09 04:02:00,
2013-03-08 20:07:00,30.9,30.1,30.13,SSE,157,0.0,0.0,97,0.00,,,0.00,WUHU21623XXSP,2013-03-09 04:07:00,
2013-03-08 20:12:00,30.9,30.1,30.13,SSE,157,0.0,0.0,97,0.00,,,0.00,WUHU21623XXSP,2013-03-09 04:12:00,
2013-03-08 20:17:00,30.9,30.1,30.12,SSE,157,0.0,0.0,97,0.00,,,0.00,WUHU21623XXSP,2013-03-09 04:17:00,
2013-03-08 20:22:00,30.7,29.9,30.13,SSE,157,0.0,0.0,97,0.00,,,0.00,WUHU21623XXSP,2013-03-09 04:22:00,
2013-03-08 20:27:00,30.7,29.9,30.13,SSE,157,0.0,0.0,97,0.00,,,0.00,WUHU21623XXSP,2013-03-09 04:27:00,
2013-03-08 20:32:00,30.6,29.8,30.13,SSE,157,0.0,0.0,97,0.00,,,0.00,WUHU21623XXSP,2013-03-09 04:32:00,
2013-03-08 20:37:00,30.4,29.6,30.13,SSE,157,0.0,0.0,97,0.00,,,0.00,WUHU21623XXSP,2013-03-09 04:37:00,
2013-03-08 20:42:00,30.0,29.2,30.13,SSE,157,0.0,0.0,97,0.00,,,0.00,WUHU21623XXSP,2013-03-09 04:42:00,
2013-03-08 20:47:00,30.0,29.2,30.13,SSE,157,0.0,0.0,97,0.00,,,0.00,WUHU21623XXSP,2013-03-09 04:47:00,
2013-03-08 20:52:00,30.0,29.2,30.13,SSE,157,0.0,0.0,97,0.00,,,0.00,WUHU21623XXSP,2013-03-09 04:52:00,
2013-03-08 20:57:00,29.1,28.3,30.13,SSE,157,0.0,0.0,97,0.00,,,0.00,WUHU21623XXSP,2013-03-09 04:57:00,
2013-03-08 21:00:00,28.9,28.1,30.13,SSE,157,0.0,0.0,97,0.00,,,0.00,WUHU21623XXSP,2013-03-09 05:00:00,
2013-03-08 21:05:00,28.9,28.1,30.14,SSE,157,0.0,0.0,97,0.00,,,0.00,WUHU21623XXSP,2013-03-09 05:05:00,
2013-03-08 21:10:00,28.9,28.1,30.14,SSE,157,0.0,0.0,97,0.00,,,0.00,WUHU21623XXSP,2013-03-09 05:10:00,
2013-03-08 21:15:00,28.8,28.0,30.14,SSE,157,0.0,0.0,97,0.00,,,0.00,WUHU21623XXSP,2013-03-09 05:15:00,
2013-03-08 21:20:00,28.6,27.8,30.14,SSE,157,0.0,0.0,97,0.00,,,0.00,WUHU21623XXSP,2013-03-09 05:20:00,
2013-03-08 21:25:00,28.2,27.4,30.14,SSE,157,0.0,0.0,97,0.00,,,0.00,WUHU21623XXSP,2013-03-09 05:25:00,
2013-03-08 21:30:00,28.2,27.4,30.14,SSE,157,0.0,0.0,97,0.00,,,0.00,WUHU21623XXSP,2013-03-09 05:30:00,
2013-03-08 21:35:00,28.4,27.6,30.14,SSE,157,0.0,0.0,97,0.00,,,0.00,WUHU21623XXSP,2013-03-09 05:35:00,
2013-03-08 21:40:00,28.6,27.8,30.14,SSE,157,0.0,0.0,97,0.00,,,0.00,WUHU21623XXSP,2013-03-09 05:40:00,
2013-03-08 21:45:00,28.6,27.8,30.14,SSE,157,0.0,0.0,97,0.00,,,0.00,WUHU21623XXSP,2013-03-09 05:45:00,
2013-03-08 21:50:00,28.6,27.8,30.14,SSE,157,0.0,0.0,97,0.00,,,0.00,WUHU21623XXSP,2013-03-09 05:50:00,
2013-03-08 21:55:00,28.2,27.4,30.14,SSE,157,0.0,0.0,97,0.00,,,0.00,WUHU21623XXSP,2013-03-09 05:55:00,
2013-03-08 22:00:00,28.8,28.0,30.14,South,180,0.0,0.0,97,0.00,,,0.00,WUHU21623XXSP,2013-03-09 06:00:00,
2013-03-08 22:05:00,29.1,28.3,30.14,South,180,0.0,0.0,97,0.00,,,0.00,WUHU21623XXSP,2013-03-09 06:05:00,
2013-03-08 22:10:00,29.5,28.7,30.14,South,180,0.0,0.0,97,0.00,,,0.00,WUHU21623XXSP,2013-03-09 06:10:00,
2013-03-08 22:15:00,29.3,28.5,30.14,South,180,0.0,0.0,97,0.00,,,0.00,WUHU21623XXSP,2013-03-09 06:15:00,
2013-03-08 22:20:00,29.3,28.5,30.14,South,180,0.0,0.0,97,0.00,,,0.00,WUHU21623XXSP,2013-03-09 06:20:00,
2013-03-08 22:25:00,29.1,28.3,30.14,South,180,0.0,0.0,97,0.00,,,0.00,WUHU21623XXSP,2013-03-09 06:25:00,
2013-03-08 22:30:00,29.1,28.3,30.14,South,180,0.0,0.0,97,0.00,,,0.00,WUHU21623XXSP,2013-03-09 06:30:00,
2013-03-08 22:35:00,29.1,28.3,30.14,South,180,0.0,0.0,97,0.00,,,0.00,WUHU21623XXSP,2013-03-09 06:35:00,
2013-03-08 22:40:00,29.1,28.3,30.15,South,180,0.0,0.0,97,0.00,,,0.00,WUHU21623XXSP,2013-03-09 06:40:00,
2013-03-08 22:45:00,29.1,28.3,30.15,South,180,0.0,0.0,97,0.00,,,0.00,WUHU21623XXSP,2013-03-09 06:45:00,
2013-03-08 22:50:00,29.1,28.3,30.15,South,180,0.0,0.0,97,0.00,,,0.00,WUHU21623XXSP,2013-03-09 06:50:00,
2013-03-08 22:55:00,29.1,28.3,30.15,South,180,0.0,0.0,97,0.00,,,0.00,WUHU21623XXSP,2013-03-09 06:55:00,
2013-03-08 23:00:00,29.5,28.7,30.15,South,180,0.0,0.0,97,0.00,,,0.00,WUHU21623XXSP,2013-03-09 07:00:00,
2013-03-08 23:05:00,29.8,29.0,30.15,South,180,0.0,0.0,97,0.00,,,0.00,WUHU21623XXSP,2013-03-09 07:05:00,
2013-03-08 23:10:00,29.8,29.0,30.15,South,180,0.0,0.0,97,0.00,,,0.00,WUHU21623XXSP,2013-03-09 07:10:00,
2013-03-08 23:15:00,29.7,28.9,30.16,South,180,0.0,0.0,97,0.00,,,0.00,WUHU21623XXSP,2013-03-09 07:15:00,
2013-03-08 23:20:00,29.5,28.7,30.15,South,180,0.0,0.0,97,0.00,,,0.00,WUHU21623XXSP,2013-03-09 07:20:00,
2013-03-08 23:25:00,29.3,28.5,30.16,South,180,0.0,0.0,97,0.00,,,0.00,WUHU21623XXSP,2013-03-09 07:25:00,
2013-03-08 23:30:00,29.3,28.5,30.16,South,180,0.0,0.0,97,0.00,,,0.00,WUHU21623XXSP,2013-03-09 07:30:00,
2013-03-08 23:35:00,29.3,28.5,30.16,South,180,0.0,0.0,97,0.00,,,0.00,WUHU21623XXSP,2013-03-09 07:35:00,
2013-03-08 23:40:00,29.3,28.5,30.16,South,180,0.0,0.0,97,0.00,,,0.00,WUHU21623XXSP,2013-03-09 07:40:00,
2013-03-08 23:45:00,29.5,28.7,30.16,South,180,0.0,0.0,97,0.00,,,0.00,WUHU21623XXSP,2013-03-09 07:45:00,
2013-03-08 23:50:00,29.7,28.9,30.15,South,180,0.0,0.0,97,0.00,,,0.00,WUHU21623XXSP,2013-03-09 07:50:00,
2013-03-08 23:55:00,30.0,29.4,30.16,South,180,0.0,0.0,98,0.00,,,0.00,WUHU21623XXSP,2013-03-09 07:55:00,